Timestamp,T1_Demand_MW,T1_Demand_MVAr,T1_Demand_MVA,T1_Gen_MW,T1_Gen_MVAr,T1_Gen_MVA,T1_Import_MW,T1_Import_MVAr,T1_Import_MVA,T2_Demand_MW,T2_Demand_MVAr,T2_Demand_MVA,T2_Gen_MW,T2_Gen_MVAr,T2_Gen_MVA,T2_Import_MW,T2_Import_MVAr,T2_Import_MVA
2019-03-31 00:30:00,5.08144,0.00042,5.0814400174,0.00144,0.00042,0.0015,5.08,0.0,5.08,5.89144,0.00042,5.891440015,0.00144,0.00042,0.0015,5.89,0.0,5.89
2019-03-31 01:00:00,5.12384,0.0011200000000000001,5.1238401224,0.0038400000000000005,0.0011200000000000001,0.004,5.12,0.0,5.12,6.01384,0.0011200000000000001,6.0138401043,0.0038400000000000005,0.0011200000000000001,0.004,6.01,0.0,6.01
2019-03-31 01:30:00,0.011160000000000002,-0.00062,0.011177209,0.00816,0.00238,0.0085,0.003,-0.003,0.0042426407000000005,0.011160000000000002,0.00538,0.0123891081,0.00816,0.00238,0.0085,0.003,0.003,0.0042426407000000005
2019-03-31 02:00:00,0.017400000000000002,0.0012000000000000001,0.0174413302,0.014400000000000001,0.004200000000000001,0.015,0.003,-0.003,0.0042426407000000005,0.017400000000000002,0.007200000000000001,0.0188308258,0.014400000000000001,0.004200000000000001,0.015,0.003,0.003,0.0042426407000000005
2019-03-31 02:30:00,5.07248,0.0036400000000000004,5.072481306,0.012480000000000002,0.0036400000000000004,0.013000000000000001,5.06,0.0,5.06,6.02248,0.0036400000000000004,6.0224811,0.012480000000000002,0.0036400000000000004,0.013000000000000001,6.01,0.0,6.01
2019-03-31 03:00:00,5.03912,0.00266,5.0391207021,0.009120000000000001,0.00266,0.0095,5.03,0.0,5.03,5.79912,0.00266,5.7991206101,0.009120000000000001,0.00266,0.0095,5.79,0.0,5.79
2019-03-31 03:30:00,4.85672,0.0019600000000000004,4.8567203955,0.00672,0.0019600000000000004,0.007,4.85,0.0,4.85,5.58672,0.0019600000000000004,5.5867203438,0.00672,0.0019600000000000004,0.007,5.58,0.0,5.58
2019-03-31 04:00:00,4.76672,0.0019600000000000004,4.766720403,0.00672,0.0019600000000000004,0.007,4.76,0.0,4.76,5.37672,0.0019600000000000004,5.3767203572,0.00672,0.0019600000000000004,0.007,5.37,0.0,5.37
2019-03-31 04:30:00,4.67248,0.0036400000000000004,4.6724814178,0.012480000000000002,0.0036400000000000004,0.013000000000000001,4.66,0.0,4.66,5.20248,0.0036400000000000004,5.2024812734,0.012480000000000002,0.0036400000000000004,0.013000000000000001,5.19,0.0,5.19
2019-03-31 05:00:00,4.5724800000000005,0.0036400000000000004,4.5724814488,0.012480000000000002,0.0036400000000000004,0.013000000000000001,4.5600000000000005,0.0,4.5600000000000005,5.13248,0.0036400000000000004,5.1324812908,0.012480000000000002,0.0036400000000000004,0.013000000000000001,5.12,0.0,5.12
2019-03-31 05:30:00,4.5724800000000005,0.0036400000000000004,4.5724814488,0.012480000000000002,0.0036400000000000004,0.013000000000000001,4.5600000000000005,0.0,4.5600000000000005,4.98248,0.0036400000000000004,4.9824813296,0.012480000000000002,0.0036400000000000004,0.013000000000000001,4.97,0.0,4.97
2019-03-31 06:00:00,4.55392,0.00406,4.5539218098,0.013920000000000002,0.00406,0.0145,4.54,0.0,4.54,4.95392,0.00406,4.9539216637,0.013920000000000002,0.00406,0.0145,4.94,0.0,4.94
2019-03-31 06:30:00,4.69152,0.00336,4.6915212032,0.01152,0.00336,0.012,4.68,0.0,4.68,5.15152,0.00336,5.1515210958,0.01152,0.00336,0.012,5.14,0.0,5.14
2019-03-31 07:00:00,4.71584,0.00462,4.7158422631,0.01584,0.00462,0.0165,4.7,0.0,4.7,5.24584,0.00462,5.2458420344,0.01584,0.00462,0.0165,5.23,0.0,5.23
2019-03-31 07:30:00,5.07728,0.00504,5.0772825015,0.01728,0.00504,0.018000000000000002,5.06,0.0,5.06,5.60728,0.00504,5.6072822651,0.01728,0.00504,0.018000000000000002,5.59,0.0,5.59
2019-03-31 08:00:00,5.59824,0.00532,5.5982425278,0.018240000000000003,0.00532,0.019,5.58,0.0,5.58,6.15824,0.00532,6.1582422979,0.018240000000000003,0.00532,0.019,6.14,0.0,6.14
2019-03-31 08:30:00,6.18536,0.0044800000000000005,6.1853616224,0.015360000000000002,0.0044800000000000005,0.016,6.17,0.0,6.17,6.85536,0.0044800000000000005,6.8553614637999996,0.015360000000000002,0.0044800000000000005,0.016,6.84,0.0,6.84
2019-03-31 09:00:00,6.6177600000000005,0.005180000000000001,6.6177620273,0.01776,0.005180000000000001,0.018500000000000003,6.6,0.0,6.6,7.46776,0.005180000000000001,7.4677617965,0.01776,0.005180000000000001,0.018500000000000003,7.45,0.0,7.45
2019-03-31 09:30:00,7.30824,0.00532,7.3082419363,0.018240000000000003,0.00532,0.019,7.29,0.0,7.29,8.11824,0.00532,8.1182417431,0.018240000000000003,0.00532,0.019,8.1,0.0,8.1
2019-03-31 10:00:00,7.8392,0.0056,7.8392020002,0.019200000000000002,0.0056,0.02,7.82,0.0,7.82,8.7492,0.0056,8.749201792200001,0.019200000000000002,0.0056,0.02,8.73,0.0,8.73
2019-03-31 10:30:00,8.06584,0.00462,8.0658413231,0.01584,0.00462,0.0165,8.05,0.0,8.05,9.21584,0.00462,9.215841158,0.01584,0.00462,0.0165,9.2,0.0,9.2
2019-03-31 11:00:00,8.06584,0.00462,8.0658413231,0.01584,0.00462,0.0165,8.05,0.0,8.05,9.39584,0.00462,9.3958411358,0.01584,0.00462,0.0165,9.38,0.0,9.38
2019-03-31 11:30:00,7.9534400000000005,0.003920000000000001,7.9534409660000005,0.01344,0.003920000000000001,0.014,7.94,0.0,7.94,9.26344,0.003920000000000001,9.2634408294,0.01344,0.003920000000000001,0.014,9.25,0.0,9.25
2019-03-31 12:00:00,7.83344,0.003920000000000001,7.8334409808,0.01344,0.003920000000000001,0.014,7.82,0.0,7.82,9.26344,0.003920000000000001,9.2634408294,0.01344,0.003920000000000001,0.014,9.25,0.0,9.25
2019-03-31 12:30:00,7.78392,0.00406,7.7839210588,0.013920000000000002,0.00406,0.0145,7.77,0.0,7.77,9.34392,0.00406,9.343920882,0.013920000000000002,0.00406,0.0145,9.33,0.0,9.33
2019-03-31 13:00:00,7.92344,0.003920000000000001,7.9234409697,0.01344,0.003920000000000001,0.014,7.91,0.0,7.91,9.23344,0.003920000000000001,9.2334408321,0.01344,0.003920000000000001,0.014,9.22,0.0,9.22
2019-03-31 13:30:00,7.76248,0.0036400000000000004,7.7624808534,0.012480000000000002,0.0036400000000000004,0.013000000000000001,7.75,0.0,7.75,9.05248,0.0036400000000000004,9.0524807318,0.012480000000000002,0.0036400000000000004,0.013000000000000001,9.04,0.0,9.04
2019-03-31 14:00:00,7.49728,0.00504,7.4972816941,0.01728,0.00504,0.018000000000000002,7.48,0.0,7.48,8.93728,0.00504,8.9372814211,0.01728,0.00504,0.018000000000000002,8.92,0.0,8.92
2019-03-31 14:30:00,7.41488,0.00434,7.4148812701,0.01488,0.00434,0.0155,7.4,0.0,7.4,8.59488,0.00434,8.5948810957,0.01488,0.00434,0.0155,8.58,0.0,8.58
2019-03-31 15:00:00,7.30056,0.0030800000000000003,7.3005606497,0.010560000000000002,0.0030800000000000003,0.011,7.29,0.0,7.29,8.45056,0.0030800000000000003,8.4505605613,0.010560000000000002,0.0030800000000000003,0.011,8.44,0.0,8.44
2019-03-31 15:30:00,7.372,0.0035,7.3720008308,0.012,0.0035,0.0125,7.36,0.0,7.36,8.542,0.0035,8.542000717,0.012,0.0035,0.0125,8.53,0.0,8.53
2019-03-31 16:00:00,7.39056,0.0030800000000000003,7.3905606418,0.010560000000000002,0.0030800000000000003,0.011,7.38,0.0,7.38,8.65056,0.0030800000000000003,8.6505605483,0.010560000000000002,0.0030800000000000003,0.011,8.64,0.0,8.64
2019-03-31 16:30:00,7.63008,0.0029400000000000003,7.6300805664,0.01008,0.0029400000000000003,0.0105,7.62,0.0,7.62,8.980080000000001,0.0029400000000000003,8.9800804813,0.01008,0.0029400000000000003,0.0105,8.97,0.0,8.97
2019-03-31 17:00:00,7.7172,0.0021000000000000003,7.7172002857,0.007200000000000001,0.0021000000000000003,0.007500000000000001,7.71,0.0,7.71,9.1272,0.0021000000000000003,9.1272002416,0.007200000000000001,0.0021000000000000003,0.007500000000000001,9.12,0.0,9.12
2019-03-31 17:30:00,7.65248,0.0036400000000000004,7.6524808657,0.012480000000000002,0.0036400000000000004,0.013000000000000001,7.64,0.0,7.64,9.26248,0.0036400000000000004,9.2624807152,0.012480000000000002,0.0036400000000000004,0.013000000000000001,9.25,0.0,9.25
2019-03-31 18:00:00,7.89056,0.0030800000000000003,7.8905606011,0.010560000000000002,0.0030800000000000003,0.011,7.88,0.0,7.88,9.20056,0.0030800000000000003,9.2005605155,0.010560000000000002,0.0030800000000000003,0.011,9.19,0.0,9.19
2019-03-31 18:30:00,8.04576,0.00168,8.0457601754,0.00576,0.00168,0.006,8.04,0.0,8.04,9.39576,0.00168,9.3957601502,0.00576,0.00168,0.006,9.39,0.0,9.39
2019-03-31 19:00:00,8.04528,0.0015400000000000001,8.0452801474,0.005280000000000001,0.0015400000000000001,0.0055000000000000005,8.04,0.0,8.04,9.57528,0.0015400000000000001,9.5752801238,0.005280000000000001,0.0015400000000000001,0.0055000000000000005,9.57,0.0,9.57
2019-03-31 19:30:00,8.24528,0.0015400000000000001,8.2452801438,0.005280000000000001,0.0015400000000000001,0.0055000000000000005,8.24,0.0,8.24,9.61528,0.0015400000000000001,9.6152801233,0.005280000000000001,0.0015400000000000001,0.0055000000000000005,9.61,0.0,9.61
2019-03-31 20:00:00,8.56912,0.00266,8.5691204129,0.009120000000000001,0.00266,0.0095,8.56,0.0,8.56,9.85912,0.00266,9.8591203588,0.009120000000000001,0.00266,0.0095,9.85,0.0,9.85
2019-03-31 20:30:00,8.92056,0.0030800000000000003,8.9205605317,0.010560000000000002,0.0030800000000000003,0.011,8.91,0.0,8.91,10.27056,0.0030800000000000003,10.2705604618,0.010560000000000002,0.0030800000000000003,0.011,10.26,0.0,10.26
2019-03-31 21:00:00,8.66864,0.00252,8.6686403663,0.00864,0.00252,0.009000000000000001,8.66,0.0,8.66,10.02864,0.00252,10.0286403166,0.00864,0.00252,0.009000000000000001,10.02,0.0,10.02
2019-03-31 21:30:00,8.22768,0.0022400000000000002,8.2276803049,0.007680000000000001,0.0022400000000000002,0.008,8.22,0.0,8.22,9.56768,0.0022400000000000002,9.5676802622,0.007680000000000001,0.0022400000000000002,0.008,9.56,0.0,9.56
2019-03-31 22:00:00,7.74672,0.0019600000000000004,7.746720248,0.00672,0.0019600000000000004,0.007,7.74,0.0,7.74,9.00672,0.0019600000000000004,9.0067202133,0.00672,0.0019600000000000004,0.007,9.0,0.0,9.0
2019-03-31 22:30:00,7.22576,0.00168,7.2257601953,0.00576,0.00168,0.006,7.22,0.0,7.22,8.33576,0.00168,8.3357601693,0.00576,0.00168,0.006,8.33,0.0,8.33
2019-03-31 23:00:00,6.56576,0.00168,6.5657602149,0.00576,0.00168,0.006,6.5600000000000005,0.0,6.5600000000000005,7.51576,0.00168,7.5157601878,0.00576,0.00168,0.006,7.51,0.0,7.51
2019-03-31 23:30:00,5.81576,0.00168,5.8157602427,0.00576,0.00168,0.006,5.8100000000000005,0.0,5.8100000000000005,6.64576,0.00168,6.6457602123,0.00576,0.00168,0.006,6.64,0.0,6.64
2019-04-01 00:00:00,5.33576,0.00168,5.3357602645,0.00576,0.00168,0.006,5.33,0.0,5.33,6.06576,0.00168,6.0657602327,0.00576,0.00168,0.006,6.06,0.0,6.06
2019-04-01 00:30:00,4.9972,0.0021000000000000003,4.9972004412,0.007200000000000001,0.0021000000000000003,0.007500000000000001,4.99,0.0,4.99,5.6372,0.0021000000000000003,5.6372003912,0.007200000000000001,0.0021000000000000003,0.007500000000000001,5.63,0.0,5.63
2019-04-01 01:00:00,4.7196,0.0028,4.7196008306,0.009600000000000001,0.0028,0.01,4.71,0.0,4.71,5.3596,0.0028,5.3596007314000005,0.009600000000000001,0.0028,0.01,5.35,0.0,5.35
2019-04-01 01:30:00,4.87864,0.00252,4.8786406507999995,0.00864,0.00252,0.009000000000000001,4.87,0.0,4.87,5.35864,0.00252,5.3586405925000005,0.00864,0.00252,0.009000000000000001,5.35,0.0,5.35
2019-04-01 02:00:00,5.0272,0.0021000000000000003,5.0272004386,0.007200000000000001,0.0021000000000000003,0.007500000000000001,5.02,0.0,5.02,5.7072,0.0021000000000000003,5.7072003864,0.007200000000000001,0.0021000000000000003,0.007500000000000001,5.7,0.0,5.7
2019-04-01 02:30:00,5.01672,0.0019600000000000004,5.0167203829,0.00672,0.0019600000000000004,0.007,5.01,0.0,5.01,5.80672,0.0019600000000000004,5.8067203308,0.00672,0.0019600000000000004,0.007,5.8,0.0,5.8
2019-04-01 03:00:00,4.98576,0.00168,4.985760283,0.00576,0.00168,0.006,4.98,0.0,4.98,5.71576,0.00168,5.7157602469,0.00576,0.00168,0.006,5.71,0.0,5.71
2019-04-01 03:30:00,4.90384,0.0011200000000000001,4.9038401279,0.0038400000000000005,0.0011200000000000001,0.004,4.9,0.0,4.9,5.62384,0.0011200000000000001,5.6238401115,0.0038400000000000005,0.0011200000000000001,0.004,5.62,0.0,5.62
2019-04-01 04:00:00,4.83384,0.0011200000000000001,4.8338401298,0.0038400000000000005,0.0011200000000000001,0.004,4.83,0.0,4.83,5.39384,0.0011200000000000001,5.3938401163,0.0038400000000000005,0.0011200000000000001,0.004,5.39,0.0,5.39
2019-04-01 04:30:00,4.83144,0.00042,4.8314400183,0.00144,0.00042,0.0015,4.83,0.0,4.83,5.35144,0.00042,5.3514400165,0.00144,0.00042,0.0015,5.35,0.0,5.35
2019-04-01 05:00:00,4.8924,0.0007,4.8924000501,0.0024000000000000002,0.0007,0.0025,4.89,0.0,4.89,5.4724,0.0007,5.4724000448,0.0024000000000000002,0.0007,0.0025,5.47,0.0,5.47
2019-04-01 05:30:00,5.0924,0.0007,5.0924000481,0.0024000000000000002,0.0007,0.0025,5.09,0.0,5.09,5.7924,0.0007,5.7924000423,0.0024000000000000002,0.0007,0.0025,5.79,0.0,5.79
2019-04-01 06:00:00,5.3424,0.0007,5.3424000459,0.0024000000000000002,0.0007,0.0025,5.34,0.0,5.34,6.4624,0.0007,6.4624000379,0.0024000000000000002,0.0007,0.0025,6.46,0.0,6.46
2019-04-01 06:30:00,6.22192,0.0005600000000000001,6.2219200252,0.0019200000000000003,0.0005600000000000001,0.002,6.22,0.0,6.22,7.72192,0.0005600000000000001,7.7219200203,0.0019200000000000003,0.0005600000000000001,0.002,7.72,0.0,7.72
2019-04-01 07:00:00,6.87192,0.0005600000000000001,6.8719200228,0.0019200000000000003,0.0005600000000000001,0.002,6.87,0.0,6.87,8.51192,0.89056,8.5583806412,0.0019200000000000003,0.0005600000000000001,0.002,8.51,0.89,8.5564127998
2019-04-01 07:30:00,7.59,0.0,7.59,0.0,0.0,0.0,7.59,0.0,7.59,9.92,0.89,9.9598443763,0.0,0.0,0.0,9.92,0.89,9.9598443763
2019-04-01 08:00:00,8.11,0.0,8.11,0.0,0.0,0.0,8.11,0.0,8.11,10.6,1.11,10.657959467,0.0,0.0,0.0,10.6,1.11,10.657959467
2019-04-01 08:30:00,8.38,0.0,8.38,0.0,0.0,0.0,8.38,0.0,8.38,11.0,1.25,11.0707949127,0.0,0.0,0.0,11.0,1.25,11.0707949127
2019-04-01 09:00:00,8.09048,0.00014000000000000001,8.0904800012,0.00048000000000000007,0.00014000000000000001,0.0005,8.09,0.0,8.09,11.43048,1.50014,11.5284991673,0.00048000000000000007,0.00014000000000000001,0.0005,11.43,1.5,11.5280050312
2019-04-01 09:30:00,8.23,0.0,8.23,0.0,0.0,0.0,8.23,0.0,8.23,12.96,1.7000000000000002,13.0710213832,0.0,0.0,0.0,12.96,1.7000000000000002,13.0710213832
2019-04-01 10:00:00,8.18,0.0,8.18,0.0,0.0,0.0,8.18,0.0,8.18,12.76,1.7000000000000002,12.872746404699999,0.0,0.0,0.0,12.76,1.7000000000000002,12.872746404699999
2019-04-01 10:30:00,8.06,0.0,8.06,0.0,0.0,0.0,8.06,0.0,8.06,12.63,1.67,12.7399293562,0.0,0.0,0.0,12.63,1.67,12.7399293562
2019-04-01 11:00:00,7.77,0.0,7.77,0.0,0.0,0.0,7.77,0.0,7.77,12.37,1.75,12.4931741363,0.0,0.0,0.0,12.37,1.75,12.4931741363
2019-04-01 11:30:00,7.54,0.0,7.54,0.0,0.0,0.0,7.54,0.0,7.54,12.04,1.71,12.1608264522,0.0,0.0,0.0,12.04,1.71,12.1608264522
2019-04-01 12:00:00,7.25,0.0,7.25,0.0,0.0,0.0,7.25,0.0,7.25,12.21,1.79,12.3405105243,0.0,0.0,0.0,12.21,1.79,12.3405105243
2019-04-01 12:30:00,7.29,0.0,7.29,0.0,0.0,0.0,7.29,0.0,7.29,12.06,1.76,12.1877479462,0.0,0.0,0.0,12.06,1.76,12.1877479462
2019-04-01 13:00:00,7.22,0.0,7.22,0.0,0.0,0.0,7.22,0.0,7.22,11.94,1.76,12.0690181871,0.0,0.0,0.0,11.94,1.76,12.0690181871
2019-04-01 13:30:00,7.01,0.0,7.01,0.0,0.0,0.0,7.01,0.0,7.01,11.51,1.53,11.61124455,0.0,0.0,0.0,11.51,1.53,11.61124455
2019-04-01 14:00:00,6.91,0.0,6.91,0.0,0.0,0.0,6.91,0.0,6.91,11.32,1.57,11.4283550872,0.0,0.0,0.0,11.32,1.57,11.4283550872
2019-04-01 14:30:00,6.84,0.0,6.84,0.0,0.0,0.0,6.84,0.0,6.84,11.16,1.5899999999999999,11.2726971041,0.0,0.0,0.0,11.16,1.5899999999999999,11.2726971041
2019-04-01 15:00:00,6.76,0.0,6.76,0.0,0.0,0.0,6.76,0.0,6.76,10.93,1.5899999999999999,11.0450441375,0.0,0.0,0.0,10.93,1.5899999999999999,11.0450441375
2019-04-01 15:30:00,6.72,0.0,6.72,0.0,0.0,0.0,6.72,0.0,6.72,10.54,1.53,10.6504694732,0.0,0.0,0.0,10.54,1.53,10.6504694732
2019-04-01 16:00:00,6.92,0.0,6.92,0.0,0.0,0.0,6.92,0.0,6.92,9.9,1.53,10.0175296356,0.0,0.0,0.0,9.9,1.53,10.0175296356
2019-04-01 16:30:00,7.39,0.0,7.39,0.0,0.0,0.0,7.39,0.0,7.39,10.23,1.38,10.322659541,0.0,0.0,0.0,10.23,1.38,10.322659541
2019-04-01 17:00:00,7.89,0.0,7.89,0.0,0.0,0.0,7.89,0.0,7.89,10.71,1.3,10.7886097343,0.0,0.0,0.0,10.71,1.3,10.7886097343
2019-04-01 17:30:00,8.3,0.0,8.3,0.0,0.0,0.0,8.3,0.0,8.3,11.07,1.13,11.1275244327,0.0,0.0,0.0,11.07,1.13,11.1275244327
2019-04-01 18:00:00,8.7,0.0,8.7,0.0,0.0,0.0,8.7,0.0,8.7,11.14,1.1,11.1941770577,0.0,0.0,0.0,11.14,1.1,11.1941770577
2019-04-01 18:30:00,8.86,0.0,8.86,0.0,0.0,0.0,8.86,0.0,8.86,11.35,0.91,11.3864217382,0.0,0.0,0.0,11.35,0.91,11.3864217382
2019-04-01 19:00:00,8.92,0.0,8.92,0.0,0.0,0.0,8.92,0.0,8.92,11.12,0.91,11.1571725809,0.0,0.0,0.0,11.12,0.91,11.1571725809
2019-04-01 19:30:00,8.81,0.0,8.81,0.0,0.0,0.0,8.81,0.0,8.81,10.83,0.91,10.8681645184,0.0,0.0,0.0,10.83,0.91,10.8681645184
2019-04-01 20:00:00,9.06,0.0,9.06,0.0,0.0,0.0,9.06,0.0,9.06,11.07,0.91,11.1073399156,0.0,0.0,0.0,11.07,0.91,11.1073399156
2019-04-01 20:30:00,9.09,0.0,9.09,0.0,0.0,0.0,9.09,0.0,9.09,11.21,0.91,11.2468751216,0.0,0.0,0.0,11.21,0.91,11.2468751216
2019-04-01 21:00:00,8.71,0.0,8.71,0.0,0.0,0.0,8.71,0.0,8.71,10.71,0.91,10.7485906053,0.0,0.0,0.0,10.71,0.91,10.7485906053
2019-04-01 21:30:00,8.20048,0.00014000000000000001,8.2004800012,0.00048000000000000007,0.00014000000000000001,0.0005,8.2,0.0,8.2,10.15048,0.00014000000000000001,10.150480001,0.00048000000000000007,0.00014000000000000001,0.0005,10.15,0.0,10.15
2019-04-01 22:00:00,7.64,0.0,7.64,0.0,0.0,0.0,7.64,0.0,7.64,9.57,0.89,9.611295438199999,0.0,0.0,0.0,9.57,0.89,9.611295438199999
2019-04-01 22:30:00,7.04,0.0,7.04,0.0,0.0,0.0,7.04,0.0,7.04,8.71,0.0,8.71,0.0,0.0,0.0,8.71,0.0,8.71
2019-04-01 23:00:00,6.31048,0.00014000000000000001,6.3104800016,0.00048000000000000007,0.00014000000000000001,0.0005,6.31,0.0,6.31,7.7904800000000005,0.00014000000000000001,7.7904800013,0.00048000000000000007,0.00014000000000000001,0.0005,7.79,0.0,7.79
2019-04-01 23:30:00,5.58,0.0,5.58,0.0,0.0,0.0,5.58,0.0,5.58,6.78,0.0,6.78,0.0,0.0,0.0,6.78,0.0,6.78
2019-04-02 00:00:00,5.15,0.0,5.15,0.0,0.0,0.0,5.15,0.0,5.15,6.3,0.0,6.3,0.0,0.0,0.0,6.3,0.0,6.3
2019-04-02 00:30:00,4.82048,0.00014000000000000001,4.820480002,0.00048000000000000007,0.00014000000000000001,0.0005,4.82,0.0,4.82,5.91048,0.00014000000000000001,5.9104800017,0.00048000000000000007,0.00014000000000000001,0.0005,5.91,0.0,5.91
2019-04-02 01:00:00,4.63,0.0,4.63,0.0,0.0,0.0,4.63,0.0,4.63,5.66,0.0,5.66,0.0,0.0,0.0,5.66,0.0,5.66
2019-04-02 01:30:00,4.73,0.0,4.73,0.0,0.0,0.0,4.73,0.0,4.73,5.66,0.0,5.66,0.0,0.0,0.0,5.66,0.0,5.66
2019-04-02 02:00:00,4.99,0.0,4.99,0.0,0.0,0.0,4.99,0.0,4.99,6.01,0.0,6.01,0.0,0.0,0.0,6.01,0.0,6.01
2019-04-02 02:30:00,5.12,0.0,5.12,0.0,0.0,0.0,5.12,0.0,5.12,6.12,0.0,6.12,0.0,0.0,0.0,6.12,0.0,6.12
2019-04-02 03:00:00,4.98,0.0,4.98,0.0,0.0,0.0,4.98,0.0,4.98,6.04,0.0,6.04,0.0,0.0,0.0,6.04,0.0,6.04
2019-04-02 03:30:00,4.88,0.0,4.88,0.0,0.0,0.0,4.88,0.0,4.88,5.88,0.0,5.88,0.0,0.0,0.0,5.88,0.0,5.88
2019-04-02 04:00:00,4.8,0.0,4.8,0.0,0.0,0.0,4.8,0.0,4.8,5.78,0.0,5.78,0.0,0.0,0.0,5.78,0.0,5.78
2019-04-02 04:30:00,4.8,0.0,4.8,0.0,0.0,0.0,4.8,0.0,4.8,5.78,0.0,5.78,0.0,0.0,0.0,5.78,0.0,5.78
2019-04-02 05:00:00,4.8,0.0,4.8,0.0,0.0,0.0,4.8,0.0,4.8,5.78,0.0,5.78,0.0,0.0,0.0,5.78,0.0,5.78
2019-04-02 05:30:00,4.92048,0.00014000000000000001,4.920480002,0.00048000000000000007,0.00014000000000000001,0.0005,4.92,0.0,4.92,5.9604800000000004,0.00014000000000000001,5.9604800016,0.00048000000000000007,0.00014000000000000001,0.0005,5.96,0.0,5.96
2019-04-02 06:00:00,5.23288,0.00084,5.2328800674,0.00288,0.00084,0.003,5.23,0.0,5.23,6.5328800000000005,0.00084,6.532880054,0.00288,0.00084,0.003,6.53,0.0,6.53
2019-04-02 06:30:00,6.14,0.0,6.14,0.0,0.0,0.0,6.14,0.0,6.14,7.8,0.89,7.8506114412,0.0,0.0,0.0,7.8,0.89,7.8506114412
2019-04-02 07:00:00,6.85,0.0,6.85,0.0,0.0,0.0,6.85,0.0,6.85,8.67,0.89,8.7155607966,0.0,0.0,0.0,8.67,0.89,8.7155607966
2019-04-02 07:30:00,7.59,0.0,7.59,0.0,0.0,0.0,7.59,0.0,7.59,10.03,1.0,10.0797271788,0.0,0.0,0.0,10.03,1.0,10.0797271788
2019-04-02 08:00:00,8.13,0.0,8.13,0.0,0.0,0.0,8.13,0.0,8.13,10.83,1.28,10.9053794065,0.0,0.0,0.0,10.83,1.28,10.9053794065
2019-04-02 08:30:00,8.39,0.0,8.39,0.0,0.0,0.0,8.39,0.0,8.39,11.29,1.54,11.3945469414,0.0,0.0,0.0,11.29,1.54,11.3945469414
2019-04-02 09:00:00,8.22,0.0,8.22,0.0,0.0,0.0,8.22,0.0,8.22,11.41,1.6800000000000002,11.5330178184,0.0,0.0,0.0,11.41,1.6800000000000002,11.5330178184
2019-04-02 09:30:00,8.19,0.0,8.19,0.0,0.0,0.0,8.19,0.0,8.19,11.85,1.69,11.9699039261,0.0,0.0,0.0,11.85,1.69,11.9699039261
2019-04-02 10:00:00,8.26048,0.00014000000000000001,8.2604800012,0.00048000000000000007,0.00014000000000000001,0.0005,8.26,0.0,8.26,11.98048,1.77014,12.1105448536,0.00048000000000000007,0.00014000000000000001,0.0005,11.98,1.77,12.1100495457
2019-04-02 10:30:00,8.20048,0.00014000000000000001,8.2004800012,0.00048000000000000007,0.00014000000000000001,0.0005,8.2,0.0,8.2,11.91048,1.65014,12.0242461656,0.00048000000000000007,0.00014000000000000001,0.0005,11.91,1.65,12.0237514944
2019-04-02 11:00:00,8.12,0.0,8.12,0.0,0.0,0.0,8.12,0.0,8.12,11.83,1.67,11.947292580300001,0.0,0.0,0.0,11.83,1.67,11.947292580300001
2019-04-02 11:30:00,8.09144,0.00042,8.0914400109,0.00144,0.00042,0.0015,8.09,0.0,8.09,11.58144,1.7804200000000001,11.7174932409,0.00144,0.00042,0.0015,11.58,1.78,11.7160061454
2019-04-02 12:00:00,7.99192,0.0005600000000000001,7.9919200196,0.0019200000000000003,0.0005600000000000001,0.002,7.99,0.0,7.99,11.82192,1.82056,11.9612805,0.0019200000000000003,0.0005600000000000001,0.002,11.82,1.82,11.9592976382
2019-04-02 12:30:00,7.81096,0.00028000000000000003,7.810960005,0.0009600000000000001,0.00028000000000000003,0.001,7.8100000000000005,0.0,7.8100000000000005,11.64096,1.90028,11.795041916,0.0009600000000000001,0.00028000000000000003,0.001,11.64,1.9,11.794049347
2019-04-02 13:00:00,7.86048,0.00014000000000000001,7.8604800012,0.00048000000000000007,0.00014000000000000001,0.0005,7.86,0.0,7.86,11.53048,1.78014,11.667084788,0.00048000000000000007,0.00014000000000000001,0.0005,11.53,1.78,11.6665890474
2019-04-02 13:30:00,7.61,0.0,7.61,0.0,0.0,0.0,7.61,0.0,7.61,11.03,1.51,11.1328792323,0.0,0.0,0.0,11.03,1.51,11.1328792323
2019-04-02 14:00:00,7.36096,0.00028000000000000003,7.3609600053,0.0009600000000000001,0.00028000000000000003,0.001,7.36,0.0,7.36,10.86096,1.48028,10.9613722225,0.0009600000000000001,0.00028000000000000003,0.001,10.86,1.48,10.960383205
2019-04-02 14:30:00,7.07192,0.0005600000000000001,7.0719200222,0.0019200000000000003,0.0005600000000000001,0.002,7.07,0.0,7.07,10.60192,1.57056,10.7176194372,0.0019200000000000003,0.0005600000000000001,0.002,10.6,1.57,10.7156381051
2019-04-02 15:00:00,7.52,0.0,7.52,0.0,0.0,0.0,7.52,0.0,7.52,10.88,1.42,10.972274149,0.0,0.0,0.0,10.88,1.42,10.972274149
2019-04-02 15:30:00,7.41288,0.00084,7.4128800476,0.00288,0.00084,0.003,7.41,0.0,7.41,10.57288,1.34084,10.6575627326,0.00288,0.00084,0.003,10.57,1.34,10.6545999456
2019-04-02 16:00:00,7.3524,0.0007,7.3524000333,0.0024000000000000002,0.0007,0.0025,7.35,0.0,7.35,10.3424,1.3407,10.4289363911,0.0024000000000000002,0.0007,0.0025,10.34,1.34,10.4264663237
2019-04-02 16:30:00,8.08432,0.00126,8.0843200982,0.00432,0.00126,0.0045000000000000005,8.08,0.0,8.08,11.28432,1.26126,11.3545873835,0.00432,0.00126,0.0045000000000000005,11.28,1.26,11.350154184
2019-04-02 17:00:00,9.14288,0.00084,9.1428800386,0.00288,0.00084,0.003,9.14,0.0,9.14,12.30288,1.15084,12.3565888901,0.00288,0.00084,0.003,12.3,1.15,12.3536431873
2019-04-02 17:30:00,9.34,0.0,9.34,0.0,0.0,0.0,9.34,0.0,9.34,12.24,1.05,12.2849542124,0.0,0.0,0.0,12.24,1.05,12.2849542124
2019-04-02 18:00:00,9.87096,0.00028000000000000003,9.870960004,0.0009600000000000001,0.00028000000000000003,0.001,9.87,0.0,9.87,12.52096,0.9402800000000001,12.5562162215,0.0009600000000000001,0.00028000000000000003,0.001,12.52,0.9400000000000001,12.5552379508
2019-04-02 18:30:00,10.31192,0.0005600000000000001,10.3119200152,0.0019200000000000003,0.0005600000000000001,0.002,10.31,0.0,10.31,12.87192,0.90056,12.9033845482,0.0019200000000000003,0.0005600000000000001,0.002,12.87,0.9,12.9014301533
2019-04-02 19:00:00,10.17,0.0,10.17,0.0,0.0,0.0,10.17,0.0,10.17,12.46,0.9,12.492461727,0.0,0.0,0.0,12.46,0.9,12.492461727
2019-04-02 19:30:00,9.84,0.0,9.84,0.0,0.0,0.0,9.84,0.0,9.84,12.05,0.9,12.0835632162,0.0,0.0,0.0,12.05,0.9,12.0835632162